Satellite-Ground Cal/Val Site Overpasses Predictions

Prediction of Satellite NPP Overpassing Cal/Val Site: Antarctic Dome C

Ground Cal/Val Site Location: Latitude: -75.10, Longitude: 123.35; Satellite-Ground Site NADIR distance within 100 km.

Table of predicted overpasses for the next 14.0 days since TLE Epoch: 12/1/2015
Interval Starting Time Ending Time Minimum Distance Time Minimum Distance (km)
1 12/01/2015 07:46:36 12/01/2015 07:46:55 12/01/2015 07:46:45 74.82
2 12/02/2015 07:27:41 12/02/2015 07:28:09 12/02/2015 07:27:55 32.99
3 12/04/2015 15:10:06 12/04/2015 15:10:15 12/04/2015 15:10:11 94.16
4 12/05/2015 14:51:06 12/05/2015 14:51:35 12/05/2015 14:51:21 17.10
5 12/07/2015 07:33:55 12/07/2015 07:34:24 12/07/2015 07:34:09 4.97
6 12/10/2015 14:57:20 12/10/2015 14:57:49 12/10/2015 14:57:34 19.54
7 12/11/2015 14:38:38 12/11/2015 14:38:52 12/11/2015 14:38:45 87.55
8 12/12/2015 07:40:10 12/12/2015 07:40:37 12/12/2015 07:40:24 39.95


NCC Satellite Cal/Val Overpasses Prediction Service
